Fairbanks, AK

3:05 PM AKDT on June 15, 2019 (GMT -0800)
Fairbanks International

Weather History for PAFA - January, 1975

Change the Weather History Date:

Tuesday, January 14, 1975

  Actual Average Record
Temperature  
Mean Temperature -24 °F -9 °F  
Max Temperature -15 °F 0 °F 44 °F (2009)
Min Temperature -33 °F -16 °F -66 °F (1934)
Degree Days  
Heating Degree Days 89 74  
Month to date heating degree days 1020  
Since 1 July heating degree days 7292  
Cooling Degree Days 0 0  
Month to date cooling degree days 0  
Year to date cooling degree days 0  
Moisture  
Dew Point -34 °F    
Average Humidity 67    
Maximum Humidity 74    
Minimum Humidity 44    
Precipitation  
Precipitation 0.00 in 0.02 in 0.22 in (2013)
Month to date precipitation 0.29  
Year to date precipitation 0.29  
Snow  
Snow 0.00 in 0.40 in 3.40 in (1937)
Month to date snowfall 5.1  
Since 1 July snowfall 43.0  
Snow Depth -    
Sea Level Pressure  
Sea Level Pressure 30.06 in    
Wind  
Wind Speed 7 mph (NNE)    
Max Wind Speed 10 mph    
Max Gust Speed -    
Visibility 17 miles    
Events      
T = Trace of Precipitation, MM = Missing Value Source: NWS Daily Summary

Daily Weather History Graph

Daily Weather History Graph

Search for Another Location

Airport or City:

Astronomy

Jan. 14, 1975 Rise Set
Actual Time 9:30 AM AHST 2:31 PM AHST
Civil Twilight 8:18 AM AHST 3:43 PM AHST
Nautical Twilight 7:11 AM AHST 4:50 PM AHST
Astronomical Twilight 6:12 AM AHST 5:49 PM AHST
Moon 9:10 AM AHST (1/14) 6:40 PM AHST (1/14)
Length of Visible Light 7h 24m
Length of Day
5h 01m
Waxing Crescent, 6% of the Moon is Illuminated
Jan 14
Waxing Crescent
Jan 20
First Quarter
Jan 27
Full
Feb 2
Last Quarter
Feb 10
New

Hourly Weather History & Observations

Time (AHST) Temp. Windchill Dew Point Humidity Pressure Visibility Wind Dir Wind Speed Gust Speed Precip Events Conditions
12:00 AM -29.0 °F -43.8 °F -35.0 °F 73% 30.05 in 15.0 mi North 4.6 mph - N/A   Clear
1:00 AM - - - N/A% 30.06 in 15.0 mi NNE 5.8 mph - N/A   Clear
2:00 AM -27.0 °F -47.1 °F -33.0 °F 73% 30.06 in 15.0 mi NNE 8.1 mph - N/A   Clear
3:00 AM -27.0 °F -48.5 °F -33.0 °F 73% 30.06 in 15.0 mi NNE 9.2 mph - N/A   Clear
4:00 AM -29.0 °F -52.3 °F -35.0 °F 73% 30.07 in 15.0 mi NNE 10.4 mph - N/A   Clear
5:00 AM -29.0 °F -46.0 °F -35.0 °F 73% 30.07 in 15.0 mi North 5.8 mph - N/A   Clear
6:00 AM -31.0 °F -50.3 °F -36.9 °F 73% 30.07 in 15.0 mi North 6.9 mph - N/A   Clear
7:00 AM -31.0 °F -50.3 °F -36.9 °F 73% 30.08 in 15.0 mi North 6.9 mph - N/A   Clear
8:00 AM -31.0 °F -50.3 °F -36.9 °F 73% 30.08 in 15.0 mi NE 6.9 mph - N/A   Clear
9:00 AM -32.1 °F -49.6 °F -38.0 °F 73% 30.10 in 15.0 mi NNE 5.8 mph - N/A   Clear
10:00 AM -33.0 °F -52.7 °F -38.9 °F 73% 30.11 in 15.0 mi NNE 6.9 mph - N/A   Scattered Clouds
11:00 AM -29.9 °F -50.6 °F -36.0 °F 72% 30.10 in 40.0 mi NNE 8.1 mph - N/A   Partly Cloudy
12:00 PM -29.9 °F -49.0 °F -36.0 °F 72% 30.10 in 40.0 mi North 6.9 mph - N/A   Scattered Clouds
1:00 PM -27.9 °F -48.2 °F -34.1 °F 73% 30.08 in 40.0 mi NNE 8.1 mph - N/A   Mostly Cloudy
2:00 PM -27.9 °F -46.6 °F -34.1 °F 73% 30.07 in 40.0 mi North 6.9 mph - N/A   Mostly Cloudy
3:00 PM -27.0 °F -47.1 °F -33.0 °F 73% 30.05 in 40.0 mi North 8.1 mph - N/A   Overcast
4:00 PM -25.1 °F -46.1 °F -31.0 °F 74% 30.04 in 20.0 mi NNE 9.2 mph - N/A   Overcast
5:00 PM -24.0 °F -40.0 °F -29.9 °F 74% 30.02 in 20.0 mi NNE 5.8 mph - N/A   Mostly Cloudy
6:00 PM -23.1 °F -42.3 °F -29.0 °F 74% 30.02 in 20.0 mi North 8.1 mph - N/A   Unknown
7:00 PM -17.0 °F -36.1 °F -29.9 °F 52% 30.02 in 20.0 mi North 9.2 mph - N/A   Mostly Cloudy
8:00 PM -15.0 °F -33.7 °F -29.9 °F 47% 30.01 in 20.0 mi North 9.2 mph - N/A   Overcast
9:00 PM -15.0 °F -33.7 °F -29.9 °F 47% 30.01 in 20.0 mi North 9.2 mph - N/A   Mostly Cloudy
10:00 PM -17.0 °F -36.1 °F -32.1 °F 46% 30.00 in 20.0 mi North 9.2 mph - N/A   Mostly Cloudy
11:00 PM -18.0 °F -34.7 °F -34.1 °F 44% 30.00 in 20.0 mi North 6.9 mph - N/A   Unknown